Regional Weather Roundup
Issued by NWS

Home | Current Version | Previous Version | Graphics & Text | Print | Product List | Glossary On
Versions: 1 2 3 4 5 6 7 8 9 10 11 12 13 14 15 16 17 18 19 20 21 22 23 24 25 26 27 28 29 30 31 32 33 34 35 36 37 38 39 40 41 42 43 44 45 46 47 48 49 50
000
ASUS43 KDTX 261001
RWRMI
MICHIGAN HOURLY REGIONAL WEATHER ROUNDUP
NATIONAL WEATHER SERVICE DETROIT/PONTIAC MI
600 AM EDT SUN MAR 26 2017

NOTE: "FAIR" INDICATES FEW OR NO CLOUDS BELOW 12,000 FEET WITH NO
SIGNIFICANT WEATHER AND/OR OBSTRUCTION TO VISIBILITY.

MIZ047>049-052>055-059>063-066>070-074>076-081>083-261100-
SOUTHEAST LOWER MICHIGAN

CITY           SKY/WX    TMP DP  RH WIND       PRES   REMARKS
ADRIAN         CLOUDY    39  36  89 E10       30.03F WCI  32
ALMA           CLOUDY    36  36  99 NE9       30.06F FOG     WCI  29
ANN ARBOR      CLOUDY    40  37  89 NE6       30.04F
BAD AXE        CLOUDY    36  32  87 E8        30.10S WCI  29
CARO           CLOUDY    37  34  89 E3        30.07F
DETROIT CITY   CLOUDY    39  37  92 E12       30.05F WCI  32
DETROIT        CLOUDY    40  37  89 E3        30.07R
FLINT          CLOUDY    38  35  89 NE7       30.06F WCI  33
GROSSE ILE     CLOUDY    38  36  91 E8        30.04R WCI  32
HILLSDALE      CLOUDY    37  36  93 E10       29.99S WCI  30
HOWELL         CLOUDY    39  37  91 E7        30.03F WCI  34

CITY           SKY/WX    TMP DP  RH WIND       PRES   REMARKS
JACKSON        CLOUDY    40  38  93 E9        30.01F WCI  34
LAMBERTVILLE   CLOUDY    39  36  88 E7        30.04F WCI  34
LANSING        CLOUDY    40  36  86 E8        30.02F WCI  34
LAPEER         CLOUDY    37  36  96 E6        30.06F WCI  32
MASON          CLOUDY    40  38  95 E7        30.02F WCI  35
MONROE         CLOUDY    39  37  94 NW5       30.05R
MT. CLEMENS    CLOUDY    38  38  99 E8        30.05F WCI  32
PONTIAC        CLOUDY    38  35  89 E6        30.04F WCI  33
PORT HOPE        N/A     35  32  88 E13       30.09F WCI  26
PORT HURON     CLOUDY    37  34  87 E7        30.08F WCI  32
TRI CITIES     CLOUDY    36  35  96 NE12      30.09S WCI  28
MIDLAND        CLOUDY    36  34  92 E7        30.08S WCI  31
TROY           CLOUDY    39  36  87 NE8       30.07S WCI  34
SAGINAW HB     CLOUDY    36  34  93 NE7       30.08F WCI  30
$$
MIZ043>046-050>051-056>058-064>065-071>073-077>080-261100-
SOUTHWEST LOWER MICHIGAN

CITY           SKY/WX    TMP DP  RH WIND       PRES   REMARKS
BATTLE CREEK   CLOUDY    41  40  96 E10       29.98F
BENTON HARBOR  CLOUDY    47  43  86 SE13      29.93S
BIG RAPIDS     CLOUDY    36  34  93 E9        30.02S FOG     WCI  29
COLDWATER      CLOUDY    42  41  95 E9        29.98S
FREMONT        CLOUDY    38  37  97 E9G16     29.98F WCI  31
HOLLAND        LGT RAIN  43  41  93 E13       29.96F
GRAND RAPIDS   CLOUDY    40  38  93 E15       29.99F FOG     WCI  32
IONIA          DRIZZLE   37  36  98 E12G20    30.00F WCI  29
KALAMAZOO      CLOUDY    43  39  86 E7        29.97F
LUDINGTON      CLOUDY    39  38  98 E10       29.97F WCI  32
MARSHALL       CLOUDY    41  40  98 E8        29.99S
MOUNT PLEASANT CLOUDY    36  34  94 E6        30.06S WCI  31
MUSKEGON       CLOUDY    42  39  89 E16       29.96F
SOUTH HAVEN    DRIZZLE   45  44  97 E9        29.94S
$$
MIZ016>042-261100-
NORTHERN LOWER MICHIGAN

CITY           SKY/WX    TMP DP  RH WIND       PRES   REMARKS
ALPENA         LGT RAIN  33  33 100 E10       30.14F WCI  25
BEAVER ISLAND  DRIZZLE   32  32 100 E5        30.07F WCI  28
BELLAIRE       FLURRIES  37  34  89 CALM      30.04F
CADILLAC       RAIN      35  34  96 E12G17    30.00F WCI  26
CHARLEVOIX     DRIZZLE   35  35 100 E7        30.08S WCI  29
FRANKFORT      CLOUDY    38  36  90 CALM      30.00F
GAYLORD        LGT RAIN  35  30  82 E9        30.05F WCI  28
GRAYLING       LGT RAIN  34  32  93 E8        30.06S WCI  27
HARBOR SPRINGS FLURRIES  33  32  98 E9        30.06F WCI  25
HOUGHTON LAKE  RAIN      35  33  92 E8G18     30.05F FOG     WCI  29
MANISTEE       LGT RAIN  39  37  92 E8        29.99F WCI  33
OSCODA         CLOUDY    36  35  94 E7        30.13S WCI  31
PELLSTON       FRZ RAIN  33  30  88 E13       30.09F WCI  24
ROGERS CITY    MIX PCPN  33  32  95 SE12        N/A  WCI  24
TRAVERSE CITY  LGT RAIN  38  35  89 E3        30.02F
$$
MIZ007>008-015-261100-
EASTERN UPPER MICHIGAN

CITY           SKY/WX    TMP DP  RH WIND       PRES   REMARKS
KINROSS        FLURRIES  30  28  92 E15       30.13F WCI  19
MACKINAC ISLAN CLOUDY    32  32 100 E20G30    30.10F WCI  20
NEWBERRY       CLOUDY    30  29  97 E8        30.10F FOG     WCI  22
S. S. MARIE    FRZ RAIN  31  27  85 E12G21    30.14F WCI  22
MUNISING         N/A     33  30  88 S7        30.07F WCI  27
$$
MIZ004>006-011>014-085-261100-
CENTRAL UPPER MICHIGAN

CITY           SKY/WX    TMP DP  RH WIND       PRES   REMARKS
ESCANABA       MIX PCPN N/A N/A N/A E8        30.06F
MENOMINEE      CLOUDY    33  32  96 E12       30.03F FOG     WCI  24
SAWYER-GWINN   CLOUDY    31  30  96 SE8       30.04F WCI  23
$$
MIZ001>003-009>011-084-261100-
WESTERN UPPER MICHIGAN

CITY           SKY/WX    TMP DP  RH WIND       PRES   REMARKS
IRON MOUNTAIN  CLOUDY    32  29  88 VRB5      30.01F WCI  27
HOUGHTON       FRZ RAIN  31  29  92 E12       30.03F VSB 1   WCI  22
COPPER HARBOR    N/A     32  30  92 VRB7      30.08S WCI  26
IRONWOOD       MIX PCPN  32  31  96 CALM      30.01F
$$

ABBREVIATIONS USED IN REMARKS
   TC - TEMPERATURE IN CELSIUS
  WCI - WIND CHILL INDEX
   HX - HEAT INDEX
  VSB - VISIBILITY





USA.gov is the U.S. government's official web portal to all federal, state and local government web resources and services.